TIANLIAN 1-03

导读 | 星芒AI

TIANLIAN 1-03 是中国自主研发的第三代地球同步轨道数据中继卫星,于2012年发射。该卫星主要用于为中低轨道航天器提供数据中继和测控支持,提升中国航天测控覆盖率和通信能力。TIANLIAN 1-03 采用东方红三号平台,具备高带宽、多频段通信能力,可支持载人航天、空间站、卫星等任务的数据传输,是中国空间信息传输体系的重要组成部分。

基本信息
目录编号:
38730
目录名称:
TIANLIAN 1-03
国际标识:
2012-040A
轨道中心:
EARTH
卫星名称:
TIANLIAN 1-03
卫星全名:
--
卫星状态:
在轨 (已飞行4891 天)
发射日期:
2012-07-25 UTC
国别 :
中国 (CN)
星等 :
--
轨道信息
数据来源 国际轨道数据 AOE轨道数据
星历时间 2025-12-14T17:21:13+0800
1天前
查看轨道信息
2025-12-15T11:00:00+0800
15小时前
查看轨道信息
半长轴 42547.279km 42547.164km
偏心率 0.0018099 0.0018053
轨道倾角 5.392° 5.393°
近地点辐角 147.791° 147.723°
升交点赤经 65.184° 65.181°
平近点角 236.271° 138.190°
近地点 36092.137km 36092.218km
远地点 36246.151km 36245.84km
周期 1455.685分钟 1455.679分钟
每日圈数 0.989225 0.989229
详细信息
使用方式:
暂无
2D轨道图
3D轨道图
轨道高度分析图
轨道倾角分析图
轨道综合分析图
查看轨道综合分析图